FW9226 Weather Reports


Display with metric or nautical units.
time (UTC)temp
F
wind
direction
speed
MPH
gust
MPH
rain 1hr
in
rain 24hr
in
rain mn
in
humidity
%
barometer
mb
20260504044005 47 73 0.0 3.0 0.00 0.00 0.00 93 1014.0
20260504043505 47 82 0.0 3.0 0.00 0.00 0.00 93 1014.0
20260504043007 47 111 0.0 3.0 0.00 0.00 0.00 93 1013.9
20260504042505 47 128 0.0 2.0 0.00 0.00 0.00 93 1013.7
20260504042006 47 73 1.0 5.0 0.00 0.00 0.00 93 1013.7
20260504041459 47 137 1.0 5.0 0.00 0.00 0.00 92 1013.7
20260504041002 47 141 1.0 5.0 0.00 0.00 0.00 92 1013.6
20260504040505 48 79 1.0 1.0 0.00 0.00 0.00 92 1013.6
20260504040006 48 75 1.0 6.0 0.00 0.00 0.00 92 1013.4
20260504034505 48 52 0.0 2.0 0.00 0.00 0.00 92 1013.4
20260504034000 48 66 0.0 1.0 0.00 0.00 0.00 91 1013.4
20260504033505 48 137 0.0 2.0 0.00 0.00 0.00 91 1013.3
20260504032505 48 227 1.0 3.0 0.00 0.00 0.00 91 1013.2
20260504031459 49 63 1.0 4.0 0.00 0.00 0.00 90 1013.0
20260504031005 49 146 1.0 4.0 0.00 0.00 0.00 89 1012.9
20260504030500 49 103 0.0 2.0 0.00 0.00 0.00 89 1012.9
20260504030006 49 105 0.0 5.0 0.00 0.00 0.00 89 1012.9
20260504025500 49 288 1.0 5.0 0.00 0.00 0.00 88 1012.8
20260504025005 50 153 1.0 3.0 0.00 0.00 0.00 88 1012.8
20260504024502 50 142 0.0 3.0 0.00 0.00 0.00 87 1012.7
20260504024001 50 108 0.0 2.0 0.00 0.00 0.00 87 1012.6
20260504023505 50 286 0.0 1.0 0.00 0.00 0.00 87 1012.5
20260504022459 51 285 0.0 3.0 0.00 0.00 0.00 86 1012.6
20260504022004 51 295 0.0 3.0 0.00 0.00 0.00 86 1012.7
20260504021506 51 281 0.0 2.0 0.00 0.00 0.00 86 1012.5
20260504021006 51 151 0.0 1.0 0.00 0.00 0.00 85 1012.5
20260504020500 51 86 0.0 1.0 0.00 0.00 0.00 85 1012.5
20260504015505 52 147 0.0 1.0 0.00 0.00 0.00 85 1012.7
20260504015006 52 79 0.0 3.0 0.00 0.00 0.00 85 1012.6
20260504014505 52 101 1.0 3.0 0.00 0.00 0.00 85 1012.5
20260504014005 52 66 0.0 3.0 0.00 0.00 0.00 84 1012.6
20260504013504 52 63 0.0 3.0 0.00 0.00 0.00 84 1012.5
20260504012505 52 119 0.0 1.0 0.00 0.00 0.00 83 1012.5
20260504012005 52 117 0.0 4.0 0.00 0.00 0.00 83 1012.5
20260504011505 53 120 1.0 6.0 0.00 0.00 0.00 83 1012.5
20260504011006 53 244 1.0 6.0 0.00 0.00 0.00 81 1012.5
20260504010504 53 112 1.0 3.0 0.00 0.00 0.00 81 1012.5
20260504010008 54 79 1.0 4.0 0.00 0.00 0.00 80 1012.5
20260504005506 54 98 1.0 4.0 0.00 0.00 0.00 80 1012.5
20260504005008 55 74 1.0 3.0 0.00 0.00 0.00 79 1012.5
20260504004006 56 139 1.0 6.0 0.00 0.00 0.00 77 1012.4
20260504003506 56 90 1.0 6.0 0.00 0.00 0.00 77 1012.4
20260504003005 56 117 1.0 5.0 0.00 0.00 0.00 76 1012.3
20260504002505 57 218 0.0 3.0 0.00 0.00 0.00 75 1012.3
20260504002009 57 254 1.0 4.0 0.00 0.00 0.00 75 1012.3
20260504001006 59 247 1.0 5.0 0.00 0.00 0.00 71 1012.2
20260504000505 60 108 1.0 3.0 0.00 0.00 0.00 71 1012.2
20260504000009 60 77 1.0 4.0 0.00 0.00 0.00 71 1012.2
20260503235005 61 245 1.0 6.0 0.00 0.00 0.00 68 1012.2
20260503234506 60 154 1.0 2.0 0.00 0.00 0.00 69 1012.1
20260503234005 60 115 0.0 2.0 0.00 0.00 0.00 69 1012.2
20260503233505 59 131 1.0 2.0 0.00 0.00 0.00 71 1012.3
20260503233007 59 71 1.0 3.0 0.00 0.00 0.00 72 1012.4
20260503232506 60 139 0.0 3.0 0.00 0.00 0.00 70 1012.4
20260503231506 59 146 0.0 2.0 0.00 0.00 0.00 72 1012.4
20260503231005 59 134 0.0 2.0 0.00 0.00 0.00 71 1012.4
20260503230505 59 130 0.0 3.0 0.00 0.00 0.00 72 1012.4
20260503230005 59 130 0.0 3.0 0.00 0.00 0.00 71 1012.5
20260503225505 59 96 0.0 2.0 0.00 0.00 0.00 71 1012.5
20260503225006 59 127 1.0 1.0 0.00 0.00 0.00 70 1012.5
20260503224004 60 133 0.0 2.0 0.00 0.00 0.00 70 1012.7
20260503223504 60 226 0.0 2.0 0.00 0.00 0.00 69 1012.6
20260503223006 60 208 0.0 2.0 0.00 0.00 0.00 70 1012.8
20260503222505 61 310 0.0 2.0 0.00 0.00 0.00 69 1012.8
20260503222006 61 216 0.0 4.0 0.00 0.00 0.00 68 1012.8
20260503221005 61 139 1.0 2.0 0.00 0.00 0.00 68 1012.8
20260503220504 61 95 1.0 2.0 0.00 0.00 0.00 67 1013.0
20260503220005 61 217 1.0 3.0 0.00 0.00 0.00 68 1012.8
20260503215506 60 120 1.0 3.0 0.00 0.00 0.00 70 1012.8
20260503215005 60 73 1.0 4.0 0.00 0.00 0.00 69 1012.8
20260503214505 60 286 1.0 4.0 0.00 0.00 0.00 68 1012.8
20260503214006 61 130 1.0 4.0 0.00 0.00 0.00 68 1012.8
20260503213500 60 238 1.0 4.0 0.00 0.00 0.00 69 1012.8
20260503213007 60 113 1.0 4.0 0.00 0.00 0.00 70 1012.8
20260503212505 59 128 1.0 6.0 0.00 0.00 0.00 71 1013.0
20260503212005 59 236 1.0 5.0 0.00 0.00 0.00 71 1013.0
20260503211005 58 56 1.0 5.0 0.00 0.00 0.00 72 1013.0
20260503210504 58 65 1.0 6.0 0.00 0.00 0.00 72 1013.1
20260503210006 59 117 1.0 6.0 0.00 0.00 0.00 71 1013.1
20260503205007 59 122 1.0 4.0 0.00 0.00 0.00 71 1012.7
20260503204506 60 108 1.0 4.0 0.00 0.00 0.00 70 1012.8
20260503204006 61 41 1.0 3.0 0.00 0.00 0.00 67 1012.8
20260503203504 62 126 1.0 4.0 0.00 0.00 0.00 66 1012.7
20260503202506 62 195 1.0 3.0 0.00 0.00 0.00 66 1012.7
20260503202005 62 77 1.0 6.0 0.00 0.00 0.00 67 1012.6
20260503201501 62 225 1.0 4.0 0.00 0.00 0.00 65 1012.6
20260503201004 63 92 1.0 5.0 0.00 0.00 0.00 65 1012.6
20260503200505 63 58 2.0 6.0 0.00 0.00 0.00 64 1012.6
20260503200006 64 131 1.0 4.0 0.00 0.00 0.00 63 1012.8
20260503195506 64 118 1.0 4.0 0.00 0.00 0.00 61 1013.0
20260503195005 65 266 2.0 10.0 0.00 0.00 0.00 60 1012.9
20260503194505 65 205 2.0 10.0 0.00 0.00 0.00 58 1012.9
20260503194005 66 277 2.0 6.0 0.00 0.00 0.00 57 1012.8
20260503193500 66 288 2.0 6.0 0.00 0.00 0.00 58 1012.6
20260503193005 66 136 2.0 6.0 0.00 0.00 0.00 55 1012.6
20260503192505 65 202 2.0 6.0 0.00 0.00 0.00 57 1012.5
20260503192004 66 106 2.0 6.0 0.00 0.00 0.00 56 1012.4
20260503191501 65 127 2.0 5.0 0.00 0.00 0.00 56 1012.4
20260503191007 65 131 1.0 5.0 0.00 0.00 0.00 56 1012.5
20260503190500 64 246 1.0 4.0 0.00 0.00 0.00 57 1012.5
20260503190006 64 269 2.0 6.0 0.00 0.00 0.00 60 1012.5
20260503185005 63 255 2.0 4.0 0.00 0.00 0.00 61 1012.7
20260503184505 62 136 2.0 6.0 0.00 0.00 0.00 62 1012.8
20260503184006 62 134 2.0 6.0 0.00 0.00 0.00 62 1012.7
20260503183505 62 123 2.0 5.0 0.00 0.00 0.00 60 1012.7
20260503183006 62 198 2.0 5.0 0.00 0.00 0.00 60 1012.8
20260503182006 63 242 0.0 2.0 0.00 0.00 0.00 53 1012.8
20260503181005 63 17 0.0 2.0 0.00 0.00 0.00 55 1012.8
20260503180506 63 29 0.0 2.0 0.00 0.00 0.00 49 1012.8
20260503180006 63 96 0.0 1.0 0.00 0.00 0.00 53 1013.0
20260503174005 61 61 0.0 1.0 0.00 0.00 0.00 61 1012.8
20260503173505 60 60 0.0 1.0 0.00 0.00 0.00 60 1012.9
20260503173007 60 53 0.0 1.0 0.00 0.00 0.00 59 1012.8
20260503172500 60 53 0.0 1.0 0.00 0.00 0.00 58 1012.9
20260503172005 60 192 0.0 1.0 0.00 0.00 0.00 57 1012.8
20260503171505 59 119 0.0 2.0 0.00 0.00 0.00 63 1013.0
20260503171005 59 141 0.0 2.0 0.00 0.00 0.00 64 1012.8
20260503170505 59 151 0.0 2.0 0.00 0.00 0.00 63 1013.0
20260503151010 54 262 0.0 0.0 0.00 0.00 0.00 69 1012.4
20260503150504 54 262 0.0 0.0 0.00 0.00 0.00 75 1012.4
20260503131007 51 262 0.0 0.0 0.00 0.00 0.00 67 1011.3
20260503130505 51 262 0.0 1.0 0.00 0.00 0.00 68 1011.3
20260503110506 51 261 0.0 0.0 0.00 0.00 0.00 68 1012.1
20260503090504 55 261 0.0 0.0 0.00 0.00 0.00 64 1012.4
20260503081504 55 261 0.0 0.0 0.00 0.00 0.00 67 1012.8
20260503081006 55 261 0.0 0.0 0.00 0.00 0.00 69 1013.0
20260503071506 55 261 0.0 1.0 0.00 0.00 0.00 73 1013.5
20260503071006 55 262 0.0 0.0 0.00 0.00 0.00 73 1013.5
20260503070505 55 261 0.0 0.0 0.00 0.00 0.00 74 1013.6
20260503055006 56 261 0.0 1.0 0.00 0.00 0.00 72 1013.8
20260503054505 55 261 0.0 1.0 0.00 0.00 0.00 72 1013.9
20260503054006 55 261 0.0 1.0 0.00 0.00 0.00 73 1013.8
20260503053506 55 259 0.0 0.0 0.00 0.00 0.00 72 1013.8
20260503053005 55 259 0.0 0.0 0.00 0.00 0.00 73 1013.9
20260503052505 55 259 0.0 0.0 0.00 0.00 0.00 73 1013.9
20260503051505 55 259 0.0 0.0 0.00 0.00 0.00 74 1014.1
20260503051006 55 259 0.0 0.0 0.00 0.00 0.00 74 1014.0
20260503050505 55 259 0.0 0.0 0.00 0.00 0.00 74 1014.0
20260503050007 55 259 0.0 0.0 0.00 0.00 0.00 73 1014.1
20260503045006 55 259 0.0 0.0 0.00 0.00 0.00 73 1014.0
20260503044505 55 259 0.0 0.0 0.00 0.00 0.00 72 1014.0